KJ4JWC Weather Reports


time (UTC)temp
F
wind
direction
speed
knots
gust
knots
rain 1hr
in
rain 24hr
in
rain mn
in
humidity
%
barometer
mb
20260505040155 59 135 0.0 0.0 0.00 0.00 0.00 55 1008.0
20260505035654 59 135 0.0 0.0 0.00 0.00 0.00 54 1008.0
20260505035156 60 135 0.0 0.0 0.00 0.00 0.00 53 1008.0
20260505034654 60 135 0.0 0.0 0.00 0.00 0.00 53 1008.0
20260505034154 60 135 0.0 0.0 0.00 0.00 0.00 52 1008.0
20260505033654 60 135 0.0 0.0 0.00 0.00 0.00 51 1008.0
20260505033154 60 135 0.0 0.0 0.00 0.00 0.00 51 1008.0
20260505032654 60 135 0.0 0.0 0.00 0.00 0.00 50 1008.0
20260505032154 60 135 0.0 0.0 0.00 0.00 0.00 51 1008.0
20260505031655 61 135 0.0 0.0 0.00 0.00 0.00 50 1008.0
20260505031154 61 135 0.0 0.0 0.00 0.00 0.00 50 1008.0
20260505030655 61 135 0.0 0.0 0.00 0.00 0.00 49 1008.0
20260505030154 61 135 0.0 0.0 0.00 0.00 0.00 48 1008.0
20260505025654 62 135 0.0 0.0 0.00 0.00 0.00 48 1008.0
20260505025154 62 135 0.0 0.0 0.00 0.00 0.00 47 1008.0
20260505024654 62 135 0.0 0.0 0.00 0.00 0.00 46 1008.0
20260505024155 62 135 0.0 0.0 0.00 0.00 0.00 46 1008.0
20260505023654 62 135 0.0 0.0 0.00 0.00 0.00 46 1008.0
20260505023155 63 135 0.0 0.0 0.00 0.00 0.00 46 1008.0
20260505022654 63 135 0.0 0.0 0.00 0.00 0.00 47 1008.0
20260505022154 63 135 0.0 0.0 0.00 0.00 0.00 46 1008.0
20260505021654 63 135 0.0 0.0 0.00 0.00 0.00 45 1008.0
20260505021154 63 135 0.0 0.0 0.00 0.00 0.00 46 1008.0
20260505020654 63 135 0.0 0.0 0.00 0.00 0.00 45 1008.0
20260505020156 63 135 0.0 0.0 0.00 0.00 0.00 45 1008.0
20260505015658 63 135 0.0 0.0 0.00 0.00 0.00 46 1008.0
20260505015154 63 135 0.0 0.0 0.00 0.00 0.00 47 1008.0
20260505014654 63 135 0.0 0.0 0.00 0.00 0.00 48 1008.0
20260505014154 63 135 0.0 0.0 0.00 0.00 0.00 47 1008.0
20260505013654 63 135 0.0 0.0 0.00 0.00 0.00 47 1008.0
20260505013154 63 135 0.0 0.0 0.00 0.00 0.00 47 1008.0
20260505012654 63 135 0.0 0.9 0.00 0.00 0.00 47 1007.0
20260505012154 63 135 0.0 0.0 0.00 0.00 0.00 47 1007.0
20260505011655 64 135 0.0 0.0 0.00 0.00 0.00 49 1007.0
20260505011155 64 135 0.0 0.0 0.00 0.00 0.00 50 1007.0
20260505010654 64 135 0.0 0.0 0.00 0.00 0.00 46 1007.0
20260505010154 64 135 0.0 0.0 0.00 0.00 0.00 45 1007.0
20260505005655 65 135 0.0 0.0 0.00 0.00 0.00 44 1007.0
20260505005154 65 135 0.0 0.0 0.00 0.00 0.00 47 1007.0
20260505004655 65 135 0.0 0.0 0.00 0.00 0.00 45 1007.0
20260505004154 66 135 0.0 0.0 0.00 0.00 0.00 45 1007.0
20260505003654 66 135 0.0 0.9 0.00 0.00 0.00 43 1007.0
20260505003154 67 135 0.0 0.0 0.00 0.00 0.00 44 1007.0
20260505002655 67 135 0.0 0.0 0.00 0.00 0.00 42 1007.0
20260505002155 68 135 0.0 0.0 0.00 0.00 0.00 42 1007.0
20260505001655 69 135 0.0 0.0 0.00 0.00 0.00 42 1007.0
20260505001154 69 135 0.0 0.0 0.00 0.00 0.00 41 1007.0
20260505000655 70 135 0.0 0.0 0.00 0.00 0.00 39 1007.0
20260505000154 70 135 0.0 0.0 0.00 0.00 0.00 39 1007.0
20260504235655 71 135 0.0 0.0 0.00 0.00 0.00 40 1007.0
20260504235154 71 135 0.0 0.0 0.00 0.00 0.00 39 1007.0
20260504234655 72 135 0.0 0.0 0.00 0.00 0.00 38 1007.0
20260504234155 72 135 0.0 0.9 0.00 0.00 0.00 38 1007.0
20260504233655 73 135 0.0 0.0 0.00 0.00 0.00 37 1007.0
20260504233154 73 135 0.0 0.0 0.00 0.00 0.00 36 1007.0
20260504232654 73 135 0.0 0.9 0.00 0.00 0.00 35 1007.0
20260504232155 74 135 0.0 0.0 0.00 0.00 0.00 37 1007.0
20260504231656 74 135 1.7 1.7 0.00 0.00 0.00 35 1007.0
20260504231156 74 135 0.9 1.7 0.00 0.00 0.00 35 1007.0
20260504230654 74 135 0.0 0.0 0.00 0.00 0.00 36 1007.0
20260504230155 75 135 0.0 0.9 0.00 0.00 0.00 35 1007.0
20260504225655 75 135 0.9 1.7 0.00 0.00 0.00 34 1007.0
20260504225204 75 135 0.0 0.9 0.00 0.00 0.00 34 1007.0
20260504224654 75 135 0.0 0.9 0.00 0.00 0.00 34 1007.0
20260504224154 75 135 0.0 0.9 0.00 0.00 0.00 35 1007.0
20260504223655 75 135 0.9 1.7 0.00 0.00 0.00 34 1007.0
20260504223154 76 135 0.9 1.7 0.00 0.00 0.00 34 1006.0
20260504222655 76 135 0.9 1.7 0.00 0.00 0.00 33 1007.0
20260504222155 76 135 0.0 0.9 0.00 0.00 0.00 35 1007.0
20260504221654 76 135 0.0 0.9 0.00 0.00 0.00 34 1007.0
20260504221155 76 135 0.0 0.9 0.00 0.00 0.00 34 1006.0
20260504220654 76 135 0.9 1.7 0.00 0.00 0.00 35 1007.0
20260504220157 76 135 1.7 1.7 0.00 0.00 0.00 35 1007.0
20260504215655 76 135 0.9 1.7 0.00 0.00 0.00 32 1007.0
20260504215156 76 135 0.0 0.9 0.00 0.00 0.00 34 1007.0
20260504214655 77 135 1.7 1.7 0.00 0.00 0.00 33 1007.0
20260504214155 77 135 1.7 2.6 0.00 0.00 0.00 34 1007.0
20260504213655 77 135 1.7 2.6 0.00 0.00 0.00 32 1007.0
20260504213157 77 135 1.7 1.7 0.00 0.00 0.00 32 1007.0
20260504212657 77 135 2.6 4.3 0.00 0.00 0.00 33 1006.0
20260504212155 77 135 0.0 0.9 0.00 0.00 0.00 33 1007.0
20260504211656 77 135 1.7 2.6 0.00 0.00 0.00 32 1007.0
20260504211156 77 135 1.7 2.6 0.00 0.00 0.00 32 1007.0
20260504210656 77 135 1.7 2.6 0.00 0.00 0.00 33 1007.0
20260504210154 77 135 1.7 2.6 0.00 0.00 0.00 33 1007.0
20260504205655 77 135 1.7 1.7 0.00 0.00 0.00 32 1007.0
20260504205156 78 135 1.7 1.7 0.00 0.00 0.00 33 1007.0
20260504204656 78 135 0.0 0.9 0.00 0.00 0.00 34 1007.0
20260504204155 78 135 1.7 1.7 0.00 0.00 0.00 32 1007.0
20260504203655 78 135 1.7 1.7 0.00 0.00 0.00 35 1007.0
20260504203157 78 135 0.0 0.9 0.00 0.00 0.00 32 1007.0
20260504202656 78 135 0.0 0.9 0.00 0.00 0.00 34 1007.0
20260504202156 78 113 0.9 1.7 0.00 0.00 0.00 33 1007.0
20260504201658 78 135 0.9 1.7 0.00 0.00 0.00 34 1007.0
20260504201155 78 135 0.9 1.7 0.00 0.00 0.00 34 1007.0
20260504200658 78 135 1.7 1.7 0.00 0.00 0.00 33 1007.0
20260504200155 77 135 1.7 1.7 0.00 0.00 0.00 33 1007.0
20260504195654 77 135 0.9 1.7 0.00 0.00 0.00 35 1007.0
20260504195156 77 135 3.5 4.3 0.00 0.00 0.00 33 1007.0
20260504194657 78 135 1.7 2.6 0.00 0.00 0.00 34 1007.0
20260504194156 78 135 2.6 2.6 0.00 0.00 0.00 34 1007.0
20260504193655 78 135 0.0 0.0 0.00 0.00 0.00 33 1007.0
20260504193156 78 135 2.6 4.3 0.00 0.00 0.00 32 1007.0
20260504192658 79 135 1.7 2.6 0.00 0.00 0.00 32 1007.0
20260504192154 79 135 0.0 0.9 0.00 0.00 0.00 33 1007.0
20260504191656 79 135 1.7 1.7 0.00 0.00 0.00 32 1008.0
20260504191156 79 113 0.0 0.0 0.00 0.00 0.00 30 1008.0
20260504190654 79 135 2.6 2.6 0.00 0.00 0.00 32 1008.0
20260504190159 80 135 1.7 2.6 0.00 0.00 0.00 30 1008.0
20260504185701 80 135 2.6 2.6 0.00 0.00 0.00 30 1008.0
20260504185156 79 135 2.6 2.6 0.00 0.00 0.00 29 1008.0
20260504184655 79 135 2.6 2.6 0.00 0.00 0.00 31 1008.0
20260504184156 79 113 0.9 1.7 0.00 0.00 0.00 31 1008.0
20260504183657 78 135 1.7 1.7 0.00 0.00 0.00 32 1008.0
20260504183155 78 135 0.9 1.7 0.00 0.00 0.00 32 1008.0
20260504182656 77 135 1.7 1.7 0.00 0.00 0.00 32 1008.0
20260504182157 77 135 2.6 3.5 0.00 0.00 0.00 31 1008.0
20260504181701 78 135 1.7 2.6 0.00 0.00 0.00 31 1008.0
20260504181157 78 135 1.7 1.7 0.00 0.00 0.00 31 1008.0
20260504180658 77 135 3.5 4.3 0.00 0.00 0.00 32 1008.0
20260504180157 78 135 1.7 2.6 0.00 0.00 0.00 31 1008.0
20260504175656 78 135 1.7 1.7 0.00 0.00 0.00 31 1008.0
20260504175156 78 135 0.9 1.7 0.00 0.00 0.00 30 1008.0
20260504174654 78 135 0.9 1.7 0.00 0.00 0.00 31 1008.0
20260504174157 77 135 1.7 1.7 0.00 0.00 0.00 31 1008.0
20260504173658 77 135 0.9 1.7 0.00 0.00 0.00 30 1008.0
20260504173158 77 135 0.9 1.7 0.00 0.00 0.00 32 1009.0
20260504172658 76 135 0.9 1.7 0.00 0.00 0.00 31 1009.0
20260504172157 77 135 2.6 3.5 0.00 0.00 0.00 31 1009.0
20260504171657 77 113 1.7 1.7 0.00 0.00 0.00 30 1009.0
20260504171157 76 135 0.9 1.7 0.00 0.00 0.00 30 1009.0
20260504170658 75 135 1.7 2.6 0.00 0.00 0.00 33 1009.0
20260504170158 74 135 1.7 1.7 0.00 0.00 0.00 33 1009.0
20260504160155 74 135 1.7 2.6 0.00 0.00 0.00 31 1010.0
20260504150657 72 135 0.9 1.7 0.00 0.00 0.00 37 1010.0
20260504150158 72 135 1.7 2.6 0.00 0.00 0.00 39 1010.0
20260504141156 66 135 0.0 0.9 0.00 0.00 0.00 48 1010.0
20260504140657 65 135 0.0 0.9 0.00 0.00 0.00 51 1010.0
20260504140158 64 113 0.9 1.7 0.00 0.00 0.00 51 1010.0
20260504130659 57 135 0.0 0.9 0.00 0.00 0.00 65 1010.0
20260504130157 56 135 0.0 0.0 0.00 0.00 0.00 69 1010.0
20260504120158 47 135 0.0 0.0 0.00 0.00 0.00 81 1010.0
20260504110656 40 135 0.0 0.0 0.00 0.00 0.00 88 1010.0
20260504110156 40 135 0.0 0.0 0.00 0.00 0.00 89 1010.0
20260504100154 40 135 0.0 0.0 0.00 0.00 0.00 89 1010.0
20260504081656 41 135 0.0 0.0 0.00 0.00 0.00 85 1010.0
20260504081158 41 135 0.0 0.0 0.00 0.00 0.00 85 1010.0
20260504080656 41 135 0.0 0.9 0.00 0.00 0.00 85 1010.0
20260504080155 41 135 0.9 1.7 0.00 0.00 0.00 85 1010.0
20260504070155 42 135 0.0 0.0 0.00 0.00 0.00 82 1010.0
20260504060156 43 135 0.0 0.0 0.00 0.00 0.00 78 1010.0
20260504050654 46 135 0.0 0.0 0.00 0.00 0.00 75 1010.0
20260504050156 46 135 0.0 0.0 0.00 0.00 0.00 74 1010.0
20260504045656 46 135 0.0 0.0 0.00 0.00 0.00 73 1010.0
20260504045154 46 135 0.0 0.0 0.00 0.00 0.00 74 1010.0
20260504044655 45 135 0.0 0.0 0.00 0.00 0.00 73 1010.0
20260504044155 45 135 0.0 0.0 0.00 0.00 0.00 74 1010.0
20260504043654 45 135 0.0 0.0 0.00 0.00 0.00 73 1010.0
20260504043155 45 135 0.0 0.0 0.00 0.00 0.00 75 1010.0
20260504042654 45 135 0.0 0.0 0.00 0.00 0.00 76 1010.0
20260504042154 45 135 0.0 0.0 0.00 0.00 0.00 75 1010.0
20260504041658 44 135 0.0 0.0 0.00 0.00 0.00 75 1010.0
20260504041155 44 135 0.0 0.0 0.00 0.00 0.00 76 1010.0
20260504040655 44 135 0.0 0.0 0.00 0.00 0.00 76 1010.0